COSMOS 1275 DEB

Satellite information

Favourite Embed

Satellite Type and Status

DEBRISIN ORBIT

Key statistics

Satellite COSMOS 1275 DEB at a glance.

Uptime

16044

Days in orbit

Revolutions

≈ 14.3

Per day

Orbit

LEO

Low Earth Orbit

Inclination

82.9

Latest

Satellite identification and parameters

Extended collection of information and parameters for COSMOS 1275 DEB.

Object identification

Identified? True

Debris? True

Object name: COSMOS 1275 DEB

International designator: 1981-053KN

Object number (NORAD): 17619

Object ID (CCSDS): 17619

Country: COMMONWEALTH OF INDEPENDENT STATES (CIS)

Current information (Y/N): Y

RCS size: SMALL

Orbital parameters

Period: 100.431 minutes

Inclination: 82.9441 deg

SMA: 7157.128 km

Apoapsis: 790.933 km

Periapsis: 767.054 km

RAAN: 350.834 deg

Eccentricy: 0.0016682

Argument of periapsis: 299.664 deg

Mean anomaly: 115.111 deg

Mean motion: 14.33819759 rev/day

Mean motion (dot): 0.00003999 rev/day2

B* drag term: 0.00143 1/REarth

Two-line elements (TLE)

Creation date: May 8, 2025, 3:01 a.m.

Reference frame: TEME

Reference center: EARTH

Epoch: May 7, 2025, 3:07 p.m. UTC

TLE line 0: 0 COSMOS 1275 DEB

TLE line 1: 1 17619U 81053KN 25127.62997711 .00003999 00000-0 14300-2 0 9990

TLE line 2: 2 17619 82.9441 350.8340 0016682 299.6640 115.1110 14.33819759 56973

Live tracking on map

Real-time ground track for satellite COSMOS 1275 DEB.

In-orbit conjunctions

A list of the most updated potential collisions computed for object COSMOS 1275 DEB.

Target Orbit TCA Probability of collision Miss distance Type
NOAA 16 DEB SSO 2025-04-15 10:41:31 0.0001421648 79.0 (m) DEBRIS
CZ-6A DEB LEO 2024-11-01 06:35:52 0.0001280783 580.0 (m) DEBRIS
CZ-4C DEB SSO 2024-09-25 05:35:50 0.0004885084 106.0 (m) DEBRIS
CZ-6A DEB LEO 2024-09-22 23:42:25 0.0001016849 666.0 (m) DEBRIS
CZ-6A DEB LEO 2024-09-20 01:06:39 0.0002767949 635.0 (m) DEBRIS

Associated space launch

Navigation satellite providing location information for the Tsiklon-B navigation system

COSMOS 1275 DEB was lifted into orbit during the mission ‘Kosmos-3M | Parus 27’, on board a Kosmos-3M space rocket.

The launch took place on June 4, 1981, 3:41 p.m. from 132/2.

For more information about the launch, click the button.

Launch to space Kosmos-3M | Parus 27
Kosmos-3M | Parus 27

Agency: N/A

Status: Launch Successful

Launch date: June 4, 1981, 3:41 p.m. UTC

Rocket: Kosmos-3M

Launch pad: 132/2

Location: Plesetsk Cosmodrome, Russian Federation

...

Latest news about this satellite

There are no fresh news available about this satellite. Check back as we update our databases every day.


Newsletter sign-up

Weekly statistics, charts and insights to help you stay on top of the space industry.